Miscellaneous Local Product
Issued by NWS Hastings, NE

Home | Current Version | Previous Version | Text Only | Print | Product List | Glossary On
Versions: 1 2 3 4 5 6 7 8 9 10 11 12 13 14 15 16 17 18 19 20 21 22 23 24 25 26 27 28 29 30 31 32 33 34 35 36 37 38 39 40 41 42 43 44 45 46 47 48 49 50
265
AXUS43 KGID 102302
MISGRI

GID CWA HOURLY WEATHER ROUNDUP
NATIONAL WEATHER SERVICE HASTINGS NE
500 PM CST WED FEB 10 2016

NOTE: "FAIR" INDICATES FEW OR NO CLOUDS BELOW 12,000 FEET WITH NO
SIGNIFICANT WEATHER AND/OR OBSTRUCTIONS TO VISIBILITY.

...SOUTH CENTRAL NEBRASKA...

CITY           SKY/WX    TMP DP  RH WIND       PRES   REMARKS
GRAND ISLAND   CLEAR     49  32  52 W5        29.89R
HASTINGS       CLEAR     46  32  58 W7        29.88R
KEARNEY        SUNNY     46  34  61 W8        29.90R
ORD            CLEAR     53  31  42 N6        29.88R
YORK           CLEAR     39  34  81 E7        29.90R WCI  34
AURORA         CLEAR     46  32  59 W5        29.88R
LEXINGTON      SUNNY     49  32  53 W12       29.91R
HOLDREGE       SUNNY     49  31  49 W7        29.90S
HEBRON         CLEAR     47  34  60 SW5       29.90R

...NEBRASKA PANHANDLE...

CITY           SKY/WX    TMP DP  RH WIND       PRES   REMARKS
CHADRON        CLOUDY    58  27  30 NW21G29   29.97R
ALLIANCE       CLOUDY    45  31  58 W17       29.99R
SCOTTSBLUFF    CLOUDY    59  24  26 NW17      30.02R
SIDNEY         CLOUDY    44  29  55 NW13      30.04R

...WESTERN AND NORTH CENTRAL NEBRASKA...

CITY           SKY/WX    TMP DP  RH WIND       PRES   REMARKS
VALENTINE      CLOUDY    51  31  46 N13       29.95R
AINSWORTH      SUNNY     52  30  43 N17G23    29.94R
ONEILL         CLEAR     38  29  68 E7        29.92R WCI  33
BROKEN BOW     SUNNY     52  30  43 NW12      29.90R
IMPERIAL       SUNNY     49  30  48 W13       29.99R
NORTH PLATTE   SUNNY     50  34  54 W8        29.93R
MCCOOK         CLOUDY    49  31  49 W3        29.96R

...EASTERN NEBRASKA...

CITY           SKY/WX    TMP DP  RH WIND       PRES   REMARKS
NORFOLK        CLEAR     34  25  69 E8        29.93R WCI  27
SO SIOUX CITY  CLOUDY    23  16  74 E12       30.02R WCI  12
TEKAMAH        CLEAR     32  24  72 E7        29.98R WCI  26
COLUMBUS       CLEAR     34  21  60 NE12      29.93R WCI  25
ALBION         CLEAR     37  30  74 E7        29.90R WCI  32
OMAHA EPPLEY   PTCLDY    36  24  62 E8        29.96R WCI  30
OFFUTT AFB     CLEAR     38  25  59 NE9       29.94R WCI  32
MILLARD        CLEAR     39  24  54 E5        29.94R
LINCOLN        CLEAR     38  28  67 NE8       29.95R WCI  32
NEBRASKA CITY  CLEAR     42  26  52 NE7       29.92R
BEATRICE       CLEAR     46  32  59 N5        29.92R
FALLS CITY     CLEAR     49  27  42 NE7       29.90R

...NORTHERN KANSAS...

CITY           SKY/WX    TMP DP  RH WIND       PRES   REMARKS
GOODLAND       SUNNY     57  32  38 NW8       30.03R
HILL CITY      SUNNY     54  32  43 NW14      29.95S
NORTON         CLEAR     48  30  49 W9        29.94R
PHILLIPSBURG   SUNNY     54  32  43 W14G20    29.94R
SMITH CENTER   SUNNY     52  34  50 W12       29.92S
BELOIT         SUNNY     57  34  41 W8        29.91R
HAYS           SUNNY     61  28  29 NW15      29.95R
RUSSELL        SUNNY     60  30  32 NW17      29.92R
CONCORDIA      CLEAR     54  30  40 NW13      29.90R
SALINA         SUNNY     65  30  27 NW15      29.90R
TOPEKA         CLEAR     59  28  30 NW7       29.88R



USA.gov is the U.S. government's official web portal to all federal, state and local government web resources and services.